Regional Weather Roundup
Issued by NWS

Home | Current Version | Previous Version | Graphics & Text | Print | Product List | Glossary On
Versions: 1 2 3 4 5 6 7 8 9 10 11 12 13 14 15 16 17 18 19 20 21 22 23 24 25 26 27 28 29 30 31 32 33 34 35 36 37 38 39 40 41 42 43 44 45 46 47 48 49 50
000
ASUS45 KSLC 280210
RWRUT

UTAH REGIONAL WEATHER ROUNDUP
NATIONAL WEATHER SERVICE SALT LAKE CITY UT
800 PM MDT SAT MAY 27 2017

UTZ001>011-023>025-280300-

NORTHERN UTAH

CITY           SKY/WX    TMP DP  RH WIND       PRES   REMARKS
BRIGHAM CITY   CLEAR     70  29  21 NW5       30.21R
HILL AFB       CLEAR     67  34  29 NW9       30.21S
LOGAN          CLEAR     64  43  46 N6        30.21S
OGDEN          CLEAR     66  34  30 N12       30.19S
SALT LAKE CITY PTCLDY    68  41  37 W9        30.19S
TOOELE VALLEY  CLEAR     63  37  39 CALM      30.22S
WENDOVER       CLEAR     70  23  17 SE7       30.21R
HEBER CITY     CLEAR     63  36  36 NW3       30.21R
WEST JORDAN    CLEAR     64  44  48 NW9       30.22S

$$

UTZ011>015-024>027-280300-

CENTRAL/NORTHEAST UTAH

CITY           SKY/WX    TMP DP  RH WIND       PRES   REMARKS
PROVO AIRPORT  CLEAR     65  42  43 NW14      30.20R
MOAB/CANYONLAN CLEAR     74  20  13 NE7       30.09R
DELTA          CLEAR     68  23  18 NW16G22   30.18R
PRICE          CLOUDY    67  27  22 N12       30.19R
ROOSEVELT      PTCLDY    66  30  26 E7        30.20R
VERNAL         MOCLDY    63  23  21 NE8       30.19R

$$

UTZ013>016-019>022-027-280300-

SOUTHERN UTAH

CITY           SKY/WX    TMP DP  RH WIND       PRES   REMARKS
BRYCE CANYON   CLEAR     61  25  25 NW14      30.25R
CEDAR CITY     CLEAR     66  23  19 N9        30.17R
MILFORD        CLEAR     70  24  17 N12       30.17R
ST GEORGE      CLEAR     84  25  11 NE17G32   29.98S
HANKSVILLE     CLEAR     77  19  11 NE13      30.09R
BLANDING       CLEAR     67  17  15 N16       30.22R

$$

REGIONAL REPORTS     COLORADO/ARIZONA

CITY           SKY/WX    TMP DP  RH WIND       PRES   REMARKS
CRAIG, CO      CLEAR     54  37  52 E5        30.26R
GRAND JUNCTION CLEAR     67  25  20 N17       30.14R
RIFLE, CO      CLEAR     62  31  31 N7        30.22R
MONTROSE, CO   PTCLDY    64  25  22 N14G21    30.19R
CORTEZ, CO     CLEAR     67  13  12 N15G24    30.13R
COLORADO CITY    N/A     77  23  13 NW10G16   30.13R
PAGE, AZ       PTCLDY    80  27  14 CALM      30.02R
GRAND CANYON   CLEAR     69  22  16 N6        30.19R
KINGMAN, AZ    CLEAR     83  27  13 SW12      30.00S
FLAGSTAFF, AZ  MOCLDY    67  20  16 SW10      30.19R

$$

REGIONAL REPORTS    NEVADA/IDAHO/WYOMING

CITY           SKY/WX    TMP DP  RH WIND       PRES   REMARKS
LAS VEGAS, NV  PTCLDY    89  23   9 S6        29.91S
ELY, NY        CLEAR     66  24  20 N12       30.21R
ELKO, NV       SUNNY     70  26  19 NE9       30.19S
POCATELLO, ID  PTCLDY    66  40  38 VRB3      30.24S
BURLEY, ID     CLEAR     67  35  30 SE5       30.20S
FORT BRIDGER,    N/A     58  28  32 NW13      30.32S
EVANSTON, WY   PTCLDY    53  32  44 NW8       30.31R
ROCK SPRINGS,  CLEAR     56  25  30 CALM      30.26R
KEMMERER, WY     N/A     54  30  40 W12G22    30.31R

$$



USA.gov is the U.S. government's official web portal to all federal, state and local government web resources and services.